カタログに戻る

TIMED

運用中科学VLEO
NORAD 26998·PAYLOAD·🇺🇸 United States

打ち上げ Dec 7, 2001 から Vandenberg Space Force Base

Loading…

次のパス (今後24時間)

TLE

最新Source: Space-Track

元期: Sep 14, 2026, 09:19 UTC

1 26998U 01055B   26257.38827037  .00000930  00000-0  87648-4 0  9994
2 26998  74.0669  55.3867 0001886 235.4185 124.6822 14.95454729344155

AllMySatでTIMEDをリアルタイム追跡

Download on the App Store